EDT,Max TemperatureF,Mean TemperatureF,Min TemperatureF,Max Dew PointF,MeanDew PointF,Min DewpointF,Max Humidity, Mean Humidity, Min Humidity, Max Sea Level PressureIn, Mean Sea Level PressureIn, Min Sea Level PressureIn, Max VisibilityMiles, Mean VisibilityMiles, Min VisibilityMiles, Max Wind SpeedMPH, Mean Wind SpeedMPH, Max Gust SpeedMPH,PrecipitationIn, CloudCover, Events, WindDirDegrees
2013-10-1,79,60,42,58,51,43,100,82,47,30.04,29.99,29.91,10,8,2,6,1,,0.00,0,,239
2013-10-2,82,64,46,60,52,46,100,89,47,30.04,29.99,29.94,10,5,1,9,1,21,0.01,2,,259
2013-10-3,77,62,46,60,51,46,100,90,43,30.15,30.09,30.05,10,4,0,0,0,,0.00,2,Fog,-1
2013-10-4,82,68,54,72,64,54,100,93,54,30.08,30.03,29.99,10,4,0,12,1,17,0.34,3,Fog-Rain,313
2013-10-5,79,69,59,68,63,59,100,94,62,30.12,30.07,30.02,10,3,0,6,1,,0.02,6,Fog,48
2013-10-6,68,65,62,65,64,61,100,96,88,30.10,30.06,30.02,10,5,1,6,2,,0.23,8,Rain,87
2013-10-7,75,64,51,69,63,46,100,89,69,30.02,29.86,29.71,10,7,0,15,5,30,0.55,7,Fog-Rain,206
2013-10-8,66,54,41,49,44,40,100,81,40,30.36,30.22,30.03,10,8,2,9,1,16,0.00,0,,25
2013-10-9,61,50,41,46,43,41,100,80,51,30.44,30.37,30.33,10,10,10,10,3,17,0.00,0,,44
2013-10-10,57,51,45,46,43,41,97,71,60,30.31,30.22,30.13,10,10,10,10,6,20,0.00,5,,44
2013-10-11,66,60,55,56,49,42,75,66,56,30.12,30.09,30.05,10,10,10,13,8,18,0.00,8,,36
2013-10-12,73,62,53,54,47,41,78,60,33,30.30,30.20,30.11,10,10,10,10,7,85,0.00,4,,41
2013-10-13,66,56,46,50,48,45,97,76,52,30.40,30.36,30.31,10,10,7,13,6,21,0.00,3,,59
2013-10-14,68,54,41,51,45,41,100,85,45,30.38,30.33,30.24,10,7,0,5,0,,0.00,3,Fog,160
2013-10-15,72,56,41,55,48,41,100,82,53,30.27,30.20,30.12,10,9,5,6,1,,0.00,1,,107
2013-10-16,64,54,44,56,51,44,100,88,72,30.12,30.03,29.92,10,10,6,4,0,,0.00,7,,220
2013-10-17,75,65,57,62,57,54,96,81,50,29.91,29.83,29.65,10,9,4,8,2,,0.04,7,Rain,201
2013-10-18,64,53,41,62,45,39,96,66,40,30.00,29.86,29.67,10,10,9,12,5,21,0.02,2,,273
2013-10-19,64,49,35,52,43,34,100,81,41,30.00,29.88,29.76,10,8,2,9,1,16,0.10,3,Rain,195
2013-10-20,61,48,37,49,40,33,100,82,38,30.07,29.91,29.76,10,7,0,10,3,18,0.00,2,Fog-Rain,229
2013-10-21,66,48,32,42,36,31,100,71,32,30.16,30.07,29.98,10,9,7,10,2,16,0.00,0,,215
2013-10-22,62,49,36,48,41,34,100,81,51,29.95,29.84,29.75,10,10,7,9,2,16,0.00,2,Rain,215
2013-10-23,53,40,28,38,32,28,100,79,41,29.84,29.74,29.64,10,10,8,6,1,16,0.00,3,Rain,321
2013-10-24,52,38,26,34,28,25,100,67,36,30.00,29.90,29.79,10,10,8,13,3,18,0.00,2,Rain,243
2013-10-25,52,38,26,34,28,25,96,70,39,30.23,30.13,30.01,10,10,10,10,2,17,0.00,2,,260
2013-10-26,53,40,26,32,28,24,96,65,35,30.22,30.07,29.88,10,10,8,13,3,24,0.00,2,,221
2013-10-27,55,42,30,33,30,28,89,60,37,30.14,29.97,29.86,10,10,10,10,4,20,0.00,3,Rain,252
2013-10-28,61,44,27,34,30,25,96,69,33,30.33,30.22,30.14,10,10,10,10,3,17,0.00,0,Rain,222
2013-10-29,51,40,30,35,28,26,89,64,43,30.44,30.39,30.35,10,10,10,7,3,,0.00,5,Rain,45
2013-10-30,55,42,28,47,37,28,100,84,66,30.35,30.26,30.19,10,9,4,5,1,,0.00,5,Rain,202
2013-10-31,62,49,37,58,50,37,100,96,82,30.23,30.03,29.76,9,3,0,9,1,18,0.06,8,Fog-Rain,215